| time (UTC) | temp C | wind direction | speed KPH | gust KPH | rain 1hr cm | rain 24hr cm | rain mn cm | humidity % | barometer mb |
| 20260510160056 | 13 | 315 | 0.0 | 0.0 | 0.03 | 0.20 | 0.03 | 89 | 1008.7 |
| 20260510154546 | 14 | 315 | 0.0 | 0.0 | 0.00 | 0.18 | 0.00 | 87 | 1008.8 |
| 20260510153030 | 14 | 221 | 0.0 | 0.0 | 0.00 | 0.18 | 0.00 | 86 | 1008.8 |
| 20260510151543 | 14 | 221 | 0.0 | 0.0 | 0.00 | 0.18 | 0.00 | 83 | 1008.9 |
| 20260510150045 | 15 | 232 | 0.0 | 0.0 | 0.00 | 0.18 | 0.00 | 81 | 1008.8 |
| 20260510144548 | 15 | 232 | 0.0 | 0.0 | 0.00 | 0.18 | 0.00 | 82 | 1008.9 |
| 20260510143041 | 16 | 232 | 0.0 | 0.0 | 0.00 | 0.18 | 0.00 | 73 | 1008.9 |
| 20260510141538 | 16 | 167 | 0.0 | 0.0 | 0.00 | 0.18 | 0.00 | 82 | 1008.9 |
| 20260510140037 | 16 | 145 | 0.0 | 0.0 | 0.00 | 0.18 | 0.00 | 78 | 1009.0 |
| 20260510134544 | 16 | 145 | 0.0 | 0.0 | 0.00 | 0.18 | 0.00 | 80 | 1009.1 |
| 20260510133034 | 16 | 145 | 0.0 | 0.0 | 0.00 | 0.18 | 0.00 | 80 | 1009.2 |
| 20260510131533 | 16 | 145 | 0.0 | 0.0 | 0.00 | 0.18 | 0.00 | 80 | 1009.3 |
| 20260510130033 | 16 | 145 | 0.0 | 0.0 | 0.00 | 0.18 | 0.00 | 81 | 1009.4 |
| 20260510124524 | 16 | 145 | 0.0 | 0.0 | 0.00 | 0.18 | 0.00 | 81 | 1009.4 |
| 20260510123024 | 16 | 145 | 0.0 | 0.0 | 0.00 | 0.18 | 0.00 | 81 | 1009.5 |
| 20260510121521 | 16 | 145 | 0.0 | 0.0 | 0.00 | 0.18 | 0.00 | 80 | 1009.7 |
| 20260510120100 | 16 | 145 | 0.0 | 0.0 | 0.00 | 0.18 | 0.00 | 78 | 1009.7 |
| 20260510114607 | 16 | 145 | 0.0 | 0.0 | 0.00 | 0.18 | 0.00 | 77 | 1009.8 |
| 20260510113057 | 16 | 145 | 0.0 | 0.0 | 0.00 | 0.18 | 0.00 | 78 | 1009.9 |
| 20260510111555 | 16 | 145 | 0.0 | 0.0 | 0.00 | 0.18 | 0.00 | 77 | 1010.0 |
| 20260510110053 | 16 | 145 | 0.0 | 0.0 | 0.00 | 0.18 | 0.00 | 78 | 1010.1 |
| 20260510104607 | 16 | 145 | 0.0 | 0.0 | 0.00 | 0.18 | 0.00 | 77 | 1010.2 |
| 20260510103053 | 16 | 142 | 0.0 | 0.0 | 0.00 | 0.18 | 0.00 | 79 | 1010.3 |
| 20260510101551 | 16 | 162 | 0.0 | 0.0 | 0.00 | 0.18 | 0.00 | 81 | 1010.2 |
| 20260510100055 | 16 | 144 | 0.0 | 0.0 | 0.00 | 0.18 | 0.00 | 79 | 1010.1 |
| 20260510094549 | 16 | 137 | 0.0 | 0.0 | 0.00 | 0.18 | 0.00 | 79 | 1010.3 |
| 20260510093045 | 15 | 139 | 0.0 | 0.0 | 0.00 | 0.18 | 0.00 | 78 | 1010.4 |
| 20260510091542 | 15 | 139 | 0.0 | 0.0 | 0.00 | 0.18 | 0.00 | 80 | 1010.5 |
| 20260510090042 | 15 | 140 | 0.0 | 0.0 | 0.00 | 0.18 | 0.00 | 81 | 1010.6 |
| 20260510084550 | 15 | 140 | 0.0 | 0.0 | 0.00 | 0.18 | 0.00 | 79 | 1010.6 |
| 20260510083038 | 15 | 133 | 0.0 | 0.0 | 0.00 | 0.18 | 0.00 | 81 | 1010.7 |
| 20260510081532 | 15 | 136 | 0.0 | 0.0 | 0.00 | 0.18 | 0.00 | 80 | 1010.7 |
| 20260510080032 | 14 | 135 | 0.0 | 0.0 | 0.00 | 0.18 | 0.00 | 82 | 1010.9 |
| 20260510074526 | 13 | 138 | 0.0 | 0.0 | 0.00 | 0.18 | 0.00 | 82 | 1010.9 |
| 20260510073029 | 13 | 150 | 0.0 | 0.0 | 0.00 | 0.18 | 0.00 | 83 | 1010.9 |
| 20260510071534 | 13 | 140 | 0.0 | 0.0 | 0.00 | 0.18 | 0.00 | 82 | 1011.0 |
| 20260510070027 | 13 | 134 | 0.0 | 0.0 | 0.00 | 0.18 | 0.00 | 81 | 1011.1 |
| 20260510064524 | 12 | 146 | 0.0 | 0.0 | 0.00 | 0.18 | 0.00 | 88 | 1011.1 |
| 20260510063016 | 12 | 143 | 0.0 | 0.0 | 0.00 | 0.18 | 0.00 | 89 | 1011.0 |
| 20260510061513 | 11 | 145 | 0.0 | 0.0 | 0.00 | 0.18 | 0.00 | 89 | 1011.3 |
| 20260510060012 | 12 | 152 | 0.0 | 0.0 | 0.00 | 0.18 | 0.00 | 89 | 1011.3 |
| 20260510054516 | 11 | 229 | 0.0 | 0.0 | 0.00 | 0.18 | 0.00 | 89 | 1011.4 |
| 20260510053009 | 11 | 227 | 0.0 | 0.0 | 0.00 | 0.18 | 0.00 | 89 | 1011.5 |
| 20260510051515 | 11 | 227 | 0.0 | 0.0 | 0.00 | 0.18 | 0.00 | 88 | 1011.7 |
| 20260510050007 | 11 | 227 | 0.0 | 0.0 | 0.00 | 0.18 | 0.00 | 89 | 1011.8 |
| 20260510044509 | 11 | 227 | 0.0 | 0.0 | 0.00 | 0.18 | 0.00 | 90 | 1011.7 |
| 20260510043006 | 10 | 227 | 0.0 | 0.0 | 0.00 | 0.18 | 0.00 | 90 | 1011.9 |
| 20260510041606 | 10 | 227 | 0.0 | 0.0 | 0.00 | 0.18 | 0.00 | 90 | 1011.9 |
| 20260510040046 | 10 | 226 | 0.0 | 0.0 | 0.00 | 0.18 | 0.00 | 89 | 1011.8 |
| 20260510034545 | 10 | 227 | 0.0 | 0.0 | 0.00 | 0.18 | 0.00 | 88 | 1011.7 |
| 20260510033041 | 10 | 227 | 0.0 | 0.0 | 0.00 | 0.18 | 0.00 | 88 | 1011.8 |
| 20260510031540 | 11 | 228 | 0.0 | 0.0 | 0.00 | 0.18 | 0.00 | 88 | 1011.9 |
| 20260510030046 | 11 | 227 | 0.0 | 0.0 | 0.00 | 0.18 | 0.00 | 88 | 1012.1 |
| 20260510024550 | 11 | 221 | 0.0 | 0.0 | 0.00 | 0.18 | 0.00 | 88 | 1012.2 |
| 20260510023036 | 11 | 250 | 0.0 | 0.0 | 0.00 | 0.18 | 0.00 | 88 | 1012.2 |
| 20260510021534 | 11 | 250 | 0.0 | 0.0 | 0.00 | 0.18 | 0.00 | 88 | 1012.4 |
| 20260510020032 | 11 | 260 | 0.0 | 0.0 | 0.00 | 0.18 | 0.00 | 87 | 1012.6 |
| 20260510014531 | 11 | 260 | 0.0 | 0.0 | 0.00 | 0.18 | 0.00 | 87 | 1012.6 |
| 20260510013030 | 11 | 260 | 0.0 | 0.0 | 0.00 | 0.18 | 0.00 | 86 | 1012.6 |
| 20260510011534 | 11 | 260 | 0.0 | 0.0 | 0.00 | 0.18 | 0.00 | 87 | 1012.5 |
| 20260510010036 | 11 | 260 | 0.0 | 0.0 | 0.00 | 0.18 | 0.00 | 86 | 1012.6 |
| 20260510004525 | 11 | 260 | 0.0 | 0.0 | 0.00 | 0.18 | 0.00 | 86 | 1012.6 |
| 20260510003025 | 11 | 231 | 0.0 | 0.0 | 0.00 | 0.18 | 0.00 | 86 | 1012.7 |
| 20260510001525 | 11 | 231 | 0.0 | 0.0 | 0.00 | 0.18 | 0.00 | 86 | 1012.7 |
| 20260510000021 | 12 | 231 | 0.0 | 0.0 | 0.00 | 0.18 | 0.00 | 86 | 1012.6 |
| 20260509234520 | 12 | 231 | 0.0 | 0.0 | 0.00 | 0.18 | 0.00 | 87 | 1012.7 |
| 20260509233019 | 11 | 231 | 0.0 | 0.0 | 0.00 | 0.18 | 0.00 | 87 | 1012.8 |
| 20260509231527 | 12 | 231 | 0.0 | 0.0 | 0.00 | 0.18 | 0.00 | 85 | 1012.7 |
| 20260509230019 | 12 | 237 | 0.0 | 0.0 | 0.00 | 0.18 | 0.00 | 86 | 1012.8 |
| 20260509224516 | 12 | 236 | 0.0 | 0.0 | 0.00 | 0.18 | 0.00 | 86 | 1012.9 |
| 20260509223014 | 12 | 237 | 0.0 | 0.0 | 0.00 | 0.18 | 0.00 | 86 | 1012.9 |
| 20260509221523 | 12 | 237 | 0.0 | 0.0 | 0.00 | 0.18 | 0.00 | 86 | 1012.8 |
| 20260509220004 | 12 | 236 | 0.0 | 0.0 | 0.00 | 0.18 | 0.00 | 86 | 1012.6 |
| 20260509214505 | 12 | 236 | 0.0 | 0.0 | 0.00 | 0.18 | 0.18 | 86 | 1012.5 |
| 20260509213005 | 12 | 236 | 0.0 | 0.0 | 0.00 | 0.18 | 0.18 | 87 | 1012.4 |
| 20260509211504 | 12 | 238 | 0.0 | 1.6 | 0.00 | 0.18 | 0.18 | 87 | 1012.4 |
| 20260509210003 | 12 | 238 | 0.0 | 0.0 | 0.00 | 0.18 | 0.18 | 87 | 1012.4 |
| 20260509204503 | 12 | 238 | 0.0 | 0.0 | 0.00 | 0.18 | 0.18 | 89 | 1012.4 |
| 20260509203002 | 12 | 238 | 0.0 | 0.0 | 0.00 | 0.18 | 0.18 | 89 | 1012.3 |
| 20260509201555 | 12 | 242 | 0.0 | 0.0 | 0.00 | 0.18 | 0.18 | 89 | 1012.3 |
| 20260509194554 | 12 | 247 | 0.0 | 0.0 | 0.00 | 0.18 | 0.18 | 91 | 1012.4 |
| 20260509193103 | 13 | 249 | 0.0 | 0.0 | 0.00 | 0.18 | 0.18 | 91 | 1012.2 |
| 20260509191611 | 13 | 247 | 0.0 | 0.0 | 0.03 | 0.18 | 0.18 | 91 | 1012.2 |
| 20260509190105 | 13 | 246 | 0.0 | 0.0 | 0.08 | 0.18 | 0.18 | 92 | 1011.8 |
| 20260509184551 | 13 | 230 | 0.0 | 0.0 | 0.15 | 0.18 | 0.18 | 91 | 1011.7 |
| 20260509183050 | 13 | 228 | 0.0 | 0.0 | 0.18 | 0.18 | 0.18 | 91 | 1011.7 |
| 20260509181549 | 14 | 227 | 0.0 | 0.0 | 0.15 | 0.15 | 0.15 | 89 | 1011.5 |
| 20260509180050 | 15 | 264 | 0.0 | 0.0 | 0.10 | 0.10 | 0.10 | 86 | 1011.5 |
| 20260509174548 | 16 | 265 | 0.0 | 0.0 | 0.03 | 0.03 | 0.03 | 80 | 1011.4 |
| 20260509173056 | 16 | 265 | 0.0 | 0.0 | 0.00 | 0.00 | 0.00 | 75 | 1011.2 |
| 20260509171559 | 17 | 266 | 0.0 | 0.0 | 0.00 | 0.00 | 0.00 | 75 | 1011.1 |
| 20260509170046 | 17 | 266 | 0.0 | 0.0 | 0.00 | 0.00 | 0.00 | 75 | 1010.9 |
| 20260509164550 | 16 | 266 | 0.0 | 0.0 | 0.00 | 0.00 | 0.00 | 74 | 1010.9 |
| 20260509163051 | 17 | 267 | 0.0 | 0.0 | 0.00 | 0.00 | 0.00 | 76 | 1010.8 |
| 20260509161548 | 17 | 269 | 0.0 | 0.0 | 0.00 | 0.00 | 0.00 | 75 | 1011.0 |